Weather History for Middletown, OH

Change the Weather History Date:

Wednesday, January 16, 2013

  Actual Average (KDAY) Record (KDAY)
Temperature  
Mean Temperature 34 °F 27 °F  
Max Temperature 37 °F 34 °F 59 °F (1990)
Min Temperature 32 °F 20 °F -17 °F (1977)
Degree Days  
Heating Degree Days 30 38  
Month to date heating degree days 602  
Since 1 July heating degree days 2761  
Cooling Degree Days 0 0  
Month to date cooling degree days 0  
Year to date cooling degree days 0  
Moisture  
Dew Point 29 °F    
Average Humidity 85    
Maximum Humidity 94    
Minimum Humidity 66    
Precipitation  
Precipitation 0.00 in 0.08 in 0.69 in (1924)
Month to date precipitation 1.49  
Year to date precipitation 1.49  
Snow  
Snow 0.00 in 0.30 in 7.10 in (1994)
Month to date snowfall 4.0  
Since 1 July snowfall 9.5  
Snow Depth -    
Sea Level Pressure  
Sea Level Pressure 30.04 in    
Wind  
Wind Speed 5 mph (WSW)    
Max Wind Speed 12 mph    
Max Gust Speed -    
Visibility 10 miles    
Events      
T = Trace of Precipitation, MM = Missing Value Source: NWS Daily Summary

Daily Weather History Graph

Daily Weather History Graph

Search for Another Location

Airport:

Trip Planner

Search our weather history database for the weather conditions in past years. The results will help you decide how hot, cold, wet, or windy it might be!

Date:

Astronomy

Jan. 16, 2013 Rise Set
Actual Time 7:55 AM EST 5:39 PM EST
Civil Twilight 7:26 AM EST 6:08 PM EST
Nautical Twilight 6:53 AM EST 6:41 PM EST
Astronomical Twilight 6:21 AM EST 7:14 PM EST
Moon 10:33 AM EST 11:28 PM EST
Length of Visible Light 10h 42m
Length of Day
9h 43m
Waxing Crescent, 28% of the Moon is Illuminated
Jan 16
Waxing Crescent
Jan 18
First Quarter
Jan 26
Full
Feb 3
Last Quarter
Feb 10
New

Hourly Weather History & Observations

Time (EST) Temp. Windchill Dew Point Humidity Pressure Visibility Wind Dir Wind Speed Gust Speed Precip Events Conditions
12:15 AM 32.5 °F 29.3 °F 28.9 °F 87% 30.10 in 10.0 mi North 3.5 mph - N/A   Overcast
12:35 AM 32.5 °F 29.3 °F 29.1 °F 87% 30.08 in 10.0 mi NE 3.5 mph - N/A   Overcast
12:55 AM 32.5 °F 29.3 °F 29.1 °F 87% 30.06 in 10.0 mi ENE 3.5 mph - N/A   Overcast
1:15 AM 32.5 °F - 29.3 °F 88% 30.06 in 10.0 mi Calm Calm - N/A   Overcast
1:35 AM 32.5 °F 29.3 °F 29.3 °F 88% 30.07 in 10.0 mi North 3.5 mph - N/A   Overcast
1:55 AM 32.5 °F 29.3 °F 29.3 °F 88% 30.08 in 10.0 mi NW 3.5 mph - N/A   Overcast
2:15 AM 32.5 °F 28.1 °F 29.3 °F 88% 30.07 in 10.0 mi North 4.6 mph - N/A   Overcast
2:35 AM 32.5 °F 28.1 °F 29.7 °F 89% 30.06 in 10.0 mi North 4.6 mph - N/A   Overcast
2:55 AM 32.5 °F 28.1 °F 29.7 °F 89% 30.07 in 10.0 mi North 4.6 mph - N/A   Overcast
3:15 AM 32.5 °F 29.3 °F 29.7 °F 89% 30.06 in 10.0 mi North 3.5 mph - N/A   Overcast
3:35 AM 32.5 °F 29.3 °F 29.7 °F 89% 30.04 in 10.0 mi NNE 3.5 mph - N/A   Overcast
3:55 AM 32.5 °F - 29.7 °F 89% 30.04 in 10.0 mi Calm Calm - N/A   Overcast
4:15 AM 32.5 °F - 29.7 °F 89% 30.03 in 10.0 mi Calm Calm - N/A   Overcast
4:35 AM 32.5 °F - 29.8 °F 90% 30.03 in 10.0 mi Calm Calm - N/A   Overcast
4:55 AM 32.5 °F - 30.0 °F 90% 30.02 in 10.0 mi Calm Calm - N/A   Overcast
5:15 AM 32.5 °F - 30.0 °F 90% 30.02 in 10.0 mi Calm Calm - N/A   Mostly Cloudy
5:35 AM 32.5 °F - 30.2 °F 91% 30.03 in 10.0 mi Calm Calm - N/A   Mostly Cloudy
5:55 AM 32.5 °F - 30.6 °F 92% 30.03 in 10.0 mi Calm Calm - N/A   Mostly Cloudy
6:15 AM 32.5 °F - 30.6 °F 92% 30.01 in 10.0 mi Calm Calm - N/A   Clear
6:35 AM 32.5 °F 28.1 °F 30.7 °F 93% 30.01 in 10.0 mi NNW 4.6 mph - N/A   Mostly Cloudy
7:35 AM 32.5 °F 28.1 °F 30.7 °F 93% 30.03 in 10.0 mi NNW 4.6 mph - N/A   Overcast
7:55 AM 32.5 °F - 30.6 °F 92% 30.01 in 10.0 mi Calm Calm - N/A   Overcast
8:15 AM 32.5 °F - 30.6 °F 92% 30.02 in 10.0 mi Calm Calm - N/A   Overcast
8:35 AM 32.5 °F - 30.6 °F 92% 30.01 in 10.0 mi Calm Calm - N/A   Overcast
8:55 AM 32.5 °F - 30.9 °F 94% 30.03 in 7.0 mi Calm Calm - N/A   Mostly Cloudy
9:15 AM 32.5 °F 29.3 °F 30.9 °F 94% 30.05 in 10.0 mi West 3.5 mph - N/A   Scattered Clouds
9:35 AM 32.5 °F 28.1 °F 30.9 °F 94% 30.05 in 7.0 mi SW 4.6 mph - N/A   Mostly Cloudy
9:55 AM 32.5 °F 27.1 °F 30.6 °F 92% 30.06 in 7.0 mi SW 5.8 mph - N/A   Overcast
10:15 AM 32.5 °F 29.3 °F 30.6 °F 92% 30.05 in 7.0 mi WSW 3.5 mph - N/A   Overcast
10:35 AM 32.5 °F 28.1 °F 30.2 °F 91% 30.05 in 10.0 mi WSW 4.6 mph - N/A   Overcast
10:55 AM 32.5 °F 27.1 °F 29.8 °F 90% 30.05 in 10.0 mi WSW 5.8 mph - N/A   Overcast
11:15 AM 33.8 °F 28.6 °F 30.9 °F 89% 30.04 in 10.0 mi WSW 5.8 mph - N/A   Overcast
11:35 AM 34.7 °F 26.9 °F 30.9 °F 86% 30.05 in 10.0 mi WSW 10.4 mph - N/A   Overcast
11:55 AM 35.1 °F 29.3 °F 30.7 °F 84% 30.03 in 10.0 mi West 6.9 mph - N/A   Overcast
12:15 PM 35.1 °F 29.3 °F 29.8 °F 81% 30.01 in 10.0 mi WSW 6.9 mph - N/A   Overcast
12:35 PM 35.1 °F 28.6 °F 29.1 °F 79% 30.01 in 10.0 mi West 8.1 mph - N/A   Overcast
12:55 PM 35.1 °F 27.9 °F 28.8 °F 78% 30.00 in 10.0 mi WSW 9.2 mph - N/A   Scattered Clouds
1:15 PM 35.1 °F 27.9 °F 28.2 °F 76% 30.00 in 10.0 mi WSW 9.2 mph - N/A   Clear
1:35 PM 35.2 °F 28.1 °F 28.0 °F 75% 30.00 in 10.0 mi West 9.2 mph - N/A   Clear
1:55 PM 36.5 °F 29.7 °F 29.7 °F 76% 30.00 in 10.0 mi WSW 9.2 mph - N/A   Clear
2:15 PM 35.6 °F 28.6 °F 27.7 °F 73% 30.00 in 10.0 mi West 9.2 mph - N/A   Clear
2:35 PM 37.6 °F 30.0 °F 28.8 °F 70% 30.00 in 10.0 mi WSW 11.5 mph - N/A   Clear
3:15 PM 37.6 °F 30.5 °F 28.6 °F 70% 30.00 in 10.0 mi WSW 10.4 mph - N/A   Clear
3:35 PM 36.3 °F 30.1 °F 26.4 °F 67% 30.00 in 10.0 mi WSW 8.1 mph - N/A   Clear
3:55 PM 37.2 °F 30.6 °F 27.0 °F 66% 30.00 in 10.0 mi SW 9.2 mph - N/A   Clear
4:15 PM 36.3 °F 28.9 °F 28.0 °F 72% 30.01 in 10.0 mi SW 10.4 mph - N/A   Clear
4:35 PM 35.2 °F 28.8 °F 25.9 °F 69% 30.01 in 10.0 mi SW 8.1 mph - N/A   Clear
4:55 PM 35.2 °F 27.1 °F 26.1 °F 69% 30.03 in 10.0 mi SW 11.5 mph - N/A   Clear
5:15 PM 35.1 °F 27.4 °F 25.9 °F 69% 30.03 in 10.0 mi SW 10.4 mph - N/A   Clear
5:35 PM 35.1 °F 27.9 °F 27.5 °F 74% 30.04 in 10.0 mi SW 9.2 mph - N/A   Clear
5:55 PM 35.1 °F 27.9 °F 28.4 °F 77% 30.03 in 10.0 mi SW 9.2 mph - N/A   Clear
6:15 PM 35.1 °F 29.3 °F 28.4 °F 77% 30.03 in 10.0 mi SW 6.9 mph - N/A   Clear
6:55 PM 32.5 °F 27.1 °F 28.0 °F 83% 30.04 in 10.0 mi WSW 5.8 mph - N/A   Clear
7:15 PM 32.5 °F 26.2 °F 28.6 °F 85% 30.06 in 10.0 mi SW 6.9 mph - N/A   Clear
7:35 PM 32.5 °F 26.2 °F 28.9 °F 87% 30.06 in 10.0 mi SW 6.9 mph - N/A   Clear
7:55 PM 32.5 °F 24.2 °F 29.3 °F 88% 30.06 in 10.0 mi SW 10.4 mph - N/A   Clear
8:15 PM 33.3 °F 25.1 °F 29.5 °F 86% 30.07 in 10.0 mi SW 10.4 mph - N/A   Clear
8:35 PM 32.5 °F 24.8 °F 28.6 °F 85% 30.08 in 10.0 mi SW 9.2 mph - N/A   Clear
8:55 PM 32.5 °F 24.8 °F 28.8 °F 86% 30.07 in 10.0 mi SW 9.2 mph - N/A   Clear
9:15 PM 32.5 °F 25.5 °F 29.5 °F 88% 30.08 in 10.0 mi SW 8.1 mph - N/A   Clear
9:35 PM 32.5 °F 25.5 °F 30.2 °F 91% 30.08 in 10.0 mi SW 8.1 mph - N/A   Clear
9:55 PM 32.5 °F 26.2 °F 30.6 °F 92% 30.08 in 10.0 mi SW 6.9 mph - N/A   Clear
10:15 PM 32.5 °F 28.1 °F 30.7 °F 93% 30.08 in 10.0 mi SW 4.6 mph - N/A   Clear
10:35 PM 32.5 °F 27.1 °F 30.9 °F 94% 30.08 in 10.0 mi SW 5.8 mph - N/A   Clear
10:55 PM 32.5 °F 25.5 °F 30.7 °F 93% 30.08 in 10.0 mi SW 8.1 mph - N/A   Clear
11:15 PM 32.5 °F 25.5 °F 31.1 °F 94% 30.08 in 10.0 mi SW 8.1 mph - N/A   Clear
11:35 PM 32.5 °F 25.5 °F 30.9 °F 94% 30.09 in 10.0 mi SW 8.1 mph - N/A   Clear
11:55 PM 32.5 °F 27.1 °F 30.6 °F 92% 30.10 in 10.0 mi SW 5.8 mph - N/A   Scattered Clouds